Find Starlink 5836

NORAD ID: 56386 Int'l Des: 2023-061 Owner: SPXS Country: US Constellation: starlink operational
LEOCIRCULAR

リアルタイム位置

3D地球を読み込み中...

Starlink 5836について

説明を読み込み中...

次回通過

Passes for default location (London). Set your location on the main map for personalized predictions.

高度履歴

Loading altitude history...

軌道要素

1 56386U 23061N 26126.33587575 -.00002530 00000-0 -84651-4 0 9990
2 56386 42.9982 232.5301 0000892 270.6449 89.4300 15.26755743165563
Epoch: May 6, 2026 • Age: 31 hours

現在のステータス

高度 494.6 km
速度 7.62 km/s
衛星直下点 -34.16°S, 85.02°E
打ち上げ日 May 4, 2023
運用期間 3 years
タイプ internet

技術仕様

分類 Payload
質量 305.00 kg
乾燥質量 290.00 kg
総質量 305.00 kg
長さ 0.20 m
直径 2.80 m
スパン 9.00 m
形状 Box + pan
製造者 SPXS
バスタイプ Starlink
フェーズステータス In Orbit
所有者/国 SPXS/US

Most Searched